Location: Unspecified
(35.7250°N, 0.0000°E)
Time: 18:06:55
(UTC+00:00)

Vanguard 1 Rocket - Pass Details

Date: 24 June 2019
Orbit: 651 x 4225 km, 34.3° (Epoch: 14 July)

Event Time Altitude Azimuth Distance (km) Brightness Sun altitude
Rises 17:26:19 0° 252° (WSW) 7,954 13.1 20.4°
Reaches altitude 10° 17:32:23 10° 252° (WSW) 6,516 12.8 19.2°
Maximum altitude 17:51:03 78° 170° (S) 2,155 9.5 15.6°
Drops below altitude 10° 18:00:12 10° 85° (E) 3,448 9.9 13.8°
Sets 18:02:25 0° 84° (E) 4,136 10.2 13.4°
